W5UOK-13 Weather Reports


Display with metric or nautical units.
time (UTC)temp
F
wind
direction
speed
MPH
gust
MPH
rain 1hr
in
rain 24hr
in
rain mn
in
humidity
%
barometer
mb
20260506134610 77 0 1.0 3.0 0.00 0.00 0.00 89 1010.6
20260506133047 76 148 2.0 6.0 0.00 0.00 0.00 90 1010.5
20260506131607 75 157 1.0 6.0 0.00 0.00 0.00 93 1010.6
20260506130052 74 0 0.0 2.0 0.00 0.00 0.00 94 1010.5
20260506124551 73 0 0.0 2.0 0.00 0.00 0.00 93 1010.4
20260506123051 73 0 0.0 0.0 0.00 0.00 0.00 93 1010.2
20260506121548 73 0 0.0 0.0 0.00 0.00 0.00 93 1010.3
20260506120047 73 0 0.0 2.0 0.00 0.00 0.00 93 1010.3
20260506114553 73 209 0.0 2.0 0.00 0.00 0.00 92 1010.1
20260506113043 73 0 0.0 2.0 0.00 0.00 0.00 92 1009.9
20260506111608 73 192 0.0 2.0 0.00 0.00 0.00 92 1009.7
20260506110051 73 162 0.0 3.0 0.00 0.00 0.00 92 1009.5
20260506104545 73 151 0.0 2.0 0.00 0.00 0.00 91 1009.3
20260506103051 74 164 0.0 2.0 0.00 0.00 0.00 91 1009.2
20260506101553 74 164 1.0 4.0 0.00 0.00 0.00 90 1009.1
20260506100131 74 142 0.0 3.0 0.00 0.00 0.00 90 1009.0
20260506094547 74 182 1.0 5.0 0.00 0.00 0.00 89 1009.2
20260506093052 75 0 1.0 5.0 0.00 0.00 0.00 89 1009.0
20260506091548 75 140 1.0 6.0 0.00 0.00 0.00 89 1009.1
20260506090047 75 206 1.0 6.0 0.00 0.00 0.00 89 1009.1
20260506084549 75 194 2.0 7.0 0.00 0.00 0.00 89 1009.1
20260506083108 75 218 1.0 5.0 0.00 0.00 0.00 90 1009.0
20260506081549 74 109 1.0 7.0 0.00 0.00 0.00 90 1009.1
20260506073054 74 207 3.0 9.0 0.00 0.00 0.00 91 1009.0
20260506071556 73 147 2.0 10.0 0.00 0.00 0.00 91 1008.9
20260506061550 74 186 1.0 8.0 0.00 0.00 0.00 91 1008.8
20260506044546 74 145 2.0 7.0 0.00 0.00 0.00 88 1009.1
20260506043047 75 165 2.0 7.0 0.00 0.00 0.00 88 1009.1
20260506041557 75 190 2.0 6.0 0.00 0.00 0.00 87 1008.8
20260506040050 75 247 2.0 8.0 0.00 0.00 0.00 86 1008.7
20260506034600 75 163 3.0 7.0 0.00 0.00 0.00 86 1008.5
20260506033052 76 142 1.0 7.0 0.00 0.00 0.00 85 1008.3
20260506031554 76 163 2.0 11.0 0.00 0.00 0.00 85 1008.1
20260506030054 76 121 2.0 5.0 0.00 0.00 0.00 84 1008.0
20260506024607 77 0 2.0 7.0 0.00 0.00 0.00 84 1007.7
20260506023056 77 140 2.0 7.0 0.00 0.00 0.00 83 1007.5
20260506021553 78 177 1.0 11.0 0.00 0.00 0.00 82 1007.3
20260506020108 78 146 2.0 8.0 0.00 0.00 0.00 81 1007.2
20260506014557 79 118 4.0 11.0 0.00 0.00 0.00 80 1007.0
20260506013051 79 121 2.0 10.0 0.00 0.00 0.00 79 1007.1
20260506011610 80 132 2.0 11.0 0.00 0.00 0.00 78 1006.9
20260506010051 81 182 2.0 11.0 0.00 0.00 0.00 78 1006.7
20260506004601 81 229 2.0 11.0 0.00 0.00 0.00 77 1006.5
20260506003045 81 0 2.0 14.0 0.00 0.00 0.00 77 1006.3
20260506001548 82 167 3.0 9.0 0.00 0.00 0.00 76 1005.9
20260506000113 82 197 2.0 9.0 0.00 0.00 0.00 76 1005.9
20260505234553 83 173 2.0 8.0 0.00 0.00 0.00 74 1005.9
20260505233055 84 190 2.0 8.0 0.00 0.00 0.00 74 1005.9
20260505231601 84 170 1.0 10.0 0.00 0.00 0.00 73 1005.8
20260505224549 85 145 1.0 12.0 0.00 0.00 0.00 70 1005.9
20260505223048 85 165 3.0 15.0 0.00 0.00 0.00 68 1005.8
20260505221556 86 304 4.0 13.0 0.00 0.00 0.00 67 1005.7
20260505220049 87 253 4.0 14.0 0.00 0.00 0.00 66 1006.1
20260505214545 87 221 3.0 19.0 0.00 0.00 0.00 66 1006.2
20260505213055 87 175 6.0 18.0 0.00 0.00 0.00 64 1006.2
20260505211553 88 134 4.0 18.0 0.00 0.00 0.00 65 1006.3
20260505210058 87 166 5.0 17.0 0.00 0.00 0.00 66 1006.2
20260505204559 86 192 5.0 23.0 0.00 0.00 0.00 66 1006.4
20260505203100 86 173 5.0 24.0 0.00 0.00 0.00 67 1006.8
20260505201554 85 146 8.0 23.0 0.00 0.00 0.00 66 1007.1
20260505200054 84 191 4.0 13.0 0.00 0.00 0.00 72 1007.3
20260505194606 84 171 6.0 17.0 0.00 0.00 0.00 70 1007.4
20260505193050 84 205 7.0 17.0 0.00 0.00 0.00 70 1007.5
20260505191605 83 36 4.0 18.0 0.00 0.00 0.00 73 1007.6
20260505190048 83 207 6.0 19.0 0.00 0.00 0.00 72 1007.8
20260505184549 82 207 4.0 18.0 0.00 0.00 0.00 73 1008.1
20260505183054 82 194 7.0 17.0 0.00 0.00 0.00 76 1008.1
20260505181551 80 196 5.0 17.0 0.00 0.00 0.00 78 1008.3
20260505180055 78 214 7.0 17.0 0.00 0.00 0.00 79 1008.6
20260505174548 77 215 4.0 15.0 0.00 0.00 0.00 81 1008.7
20260505173055 78 214 3.0 16.0 0.00 0.00 0.00 80 1008.7
20260505171610 78 194 5.0 21.0 0.00 0.00 0.00 81 1008.5
20260505170051 77 194 5.0 17.0 0.00 0.00 0.00 82 1008.6
20260505164548 76 148 5.0 15.0 0.00 0.00 0.00 83 1008.8
20260505163048 75 186 6.0 19.0 0.00 0.00 0.00 84 1008.9
20260505161551 75 131 7.0 22.0 0.00 0.00 0.00 84 1008.7
20260505153053 75 171 6.0 13.0 0.00 0.00 0.00 83 1008.7
20260505151548 75 148 5.0 13.0 0.00 0.00 0.00 84 1008.6
20260505150111 74 223 5.0 19.0 0.00 0.00 0.00 85 1008.7